Terminal Aerodrome Forecast
Issued by NWS Atlanta, GA

Home | Current Version | Previous Version | Text Only | Print | Product List | Glossary On
Versions: 1 2 3 4 5 6 7 8 9 10 11 12 13 14 15 16 17 18 19 20 21 22 23 24 25 26 27 28 29 30 31 32 33 34 35 36 37 38 39 40 41 42 43
000
FTUS42 KFFC 192100 AAC
TAFATL
TAF AMD
KATL 192104Z 1921/2024 28010KT P6SM VCSH BKN040
      TEMPO 1921/1923 VRB15G25KT 3SM -TSRA BKN025CB
     FM200000 25008KT P6SM SCT040
     FM200900 26004KT P6SM FEW015
     FM201400 28008KT P6SM SCT040=

USA.gov is the U.S. government's official web portal to all federal, state and local government web resources and services.